TimePDT,TemperatureF,Dew PointF,Humidity,Sea Level PressureIn,VisibilityMPH,Wind Direction,Wind SpeedMPH,Gust SpeedMPH,PrecipitationIn,Events,Conditions,WindDirDegrees,DateUTC
12:53 AM,48.0,45.0,89,30.05,7.0,Calm,Calm,-,N/A,,Clear,0,2013-03-25 07:53:00
1:08 AM,48.2,46.4,93,30.01,6.0,Calm,Calm,-,N/A,,Scattered Clouds,0,2013-03-25 08:08:00
1:18 AM,48.2,46.4,93,30.02,5.0,Calm,Calm,-,N/A,,Mostly Cloudy,0,2013-03-25 08:18:00
1:53 AM,46.9,45.0,93,30.04,6.0,Calm,Calm,-,N/A,,Overcast,0,2013-03-25 08:53:00
2:11 AM,48.2,46.4,93,30.02,1.8,WNW,4.6,-,N/A,,Overcast,290,2013-03-25 09:11:00
2:42 AM,48.2,46.4,93,30.02,3.0,WNW,5.8,-,N/A,,Overcast,300,2013-03-25 09:42:00
2:53 AM,48.9,46.9,93,30.04,5.0,West,5.8,-,N/A,,Overcast,260,2013-03-25 09:53:00
3:13 AM,48.2,46.4,93,30.01,6.0,SW,4.6,-,N/A,,Overcast,230,2013-03-25 10:13:00
3:53 AM,48.0,46.9,96,30.04,3.0,WSW,3.5,-,N/A,,Overcast,250,2013-03-25 10:53:00
4:53 AM,46.9,45.0,93,30.03,7.0,SW,4.6,-,N/A,,Overcast,230,2013-03-25 11:53:00
5:53 AM,44.1,42.1,93,30.04,6.0,Calm,Calm,-,N/A,,Overcast,0,2013-03-25 12:53:00
6:53 AM,45.0,43.0,93,30.04,4.0,Calm,Calm,-,N/A,,Overcast,0,2013-03-25 13:53:00
7:53 AM,46.0,45.0,96,30.05,3.0,Calm,Calm,-,N/A,,Overcast,0,2013-03-25 14:53:00
8:36 AM,46.4,44.6,93,30.03,6.0,SE,3.5,-,N/A,,Overcast,130,2013-03-25 15:36:00
8:53 AM,46.9,45.0,93,30.07,6.0,Calm,Calm,-,N/A,,Overcast,0,2013-03-25 15:53:00
9:53 AM,48.0,44.1,86,30.06,6.0,ESE,4.6,-,N/A,,Overcast,120,2013-03-25 16:53:00
10:41 AM,51.8,46.4,82,30.03,8.0,SE,4.6,-,N/A,,Scattered Clouds,130,2013-03-25 17:41:00
10:53 AM,52.0,46.0,80,30.06,9.0,SSE,4.6,-,N/A,,Clear,150,2013-03-25 17:53:00
11:53 AM,57.0,45.0,64,30.05,10.0,Calm,Calm,-,N/A,,Clear,0,2013-03-25 18:53:00
12:53 PM,59.0,48.0,67,30.04,7.0,West,11.5,-,N/A,,Clear,270,2013-03-25 19:53:00
1:53 PM,60.1,46.0,60,30.03,9.0,West,9.2,-,N/A,,Clear,280,2013-03-25 20:53:00
2:53 PM,57.9,45.0,62,30.02,10.0,WNW,11.5,-,N/A,,Clear,290,2013-03-25 21:53:00
3:53 PM,57.0,44.1,62,30.01,10.0,West,15.0,-,N/A,,Clear,280,2013-03-25 22:53:00
4:53 PM,55.0,44.1,67,30.01,10.0,West,15.0,-,N/A,,Clear,270,2013-03-25 23:53:00
5:53 PM,52.0,43.0,71,30.01,10.0,West,12.7,-,N/A,,Clear,270,2013-03-26 00:53:00
6:53 PM,51.1,43.0,74,30.03,10.0,West,10.4,-,N/A,,Clear,260,2013-03-26 01:53:00
7:53 PM,51.1,43.0,74,30.02,10.0,West,10.4,-,N/A,,Clear,260,2013-03-26 02:53:00
8:53 PM,50.0,43.0,77,30.03,10.0,West,6.9,-,N/A,,Clear,280,2013-03-26 03:53:00
9:53 PM,50.0,43.0,77,30.05,10.0,West,6.9,-,N/A,,Partly Cloudy,280,2013-03-26 04:53:00
10:53 PM,48.9,43.0,80,30.06,10.0,WNW,3.5,-,N/A,,Partly Cloudy,290,2013-03-26 05:53:00
11:25 PM,48.2,42.8,82,30.02,10.0,West,4.6,-,N/A,,Mostly Cloudy,280,2013-03-26 06:25:00
11:53 PM,48.9,43.0,80,30.05,10.0,Calm,Calm,-,N/A,,Scattered Clouds,0,2013-03-26 06:53:00